Overview Statistics Trail Chart Weather Telemetry Raw packets
 

This is the latest recevied weather packets stored in our database for station/object HI3LT-13. If no packets are shown the sender has not sent any weather packets the latest 10 day(s).

<< 10 11 12 13 14 15 16 >>
Time Temp. Humidity Pressure Rain* Wind** Luminosity Snow
1788449254 30.56° C 72% 1016 hPa 0 mm - - -
1788448672 31.11° C 73% 1016 hPa 0 mm - - -
1788448053 32.22° C 80% 1016 hPa 0 mm - - -
1788447452 32.22° C 80% 1016 hPa 0 mm - - -
1788446852 32.22° C 78% 1016 hPa 0 mm - - -
1788446251 30° C 76% 1016 hPa 0 mm - - -
1788445650 30° C 80% 1016 hPa 0 mm - - -
1788445050 30.56° C 81% 1016 hPa 0 mm - - -
1788444449 30.56° C 83% 1016 hPa 0 mm - - -
1788443848 29.44° C 85% 1016 hPa 0 mm - - -
1788443248 30° C 86% 1016 hPa 0 mm - - -
1788442647 28.33° C 84% 1016 hPa 0 mm - - -
1788442047 27.22° C 86% 1016 hPa 0 mm - - -
1788441446 27.22° C 91% 1016 hPa 0 mm - - -
1788440845 27.22° C 91% 1016 hPa 0 mm - - -
1788440245 26.67° C 91% 1016 hPa 0 mm - - -
1788439644 25.56° C 91% 1016 hPa 0 mm - - -
1788439043 24.44° C 91% 1016 hPa 0 mm - - -
1788438443 24.44° C 91% 1016 hPa 0 mm - - -
1788437842 24.44° C 91% 1016 hPa 0 mm - - -
1788437241 23.89° C 92% 1016 hPa 0 mm - - -
1788436641 23.89° C 93% 1016 hPa 0 mm - - -
1788436040 23.89° C 93% 1016 hPa 0 mm - - -
1788435440 23.89° C 93% 1016 hPa 0 mm - - -
1788434854 23.89° C 93% 1016 hPa 0 mm - - -

* Rain latest hour (hover to see other rain measurements)
** Current wind speed in m/s (hover to see current wind gust speed)